When you browse on this site, cookies collect data to enhance your experience and personalize the content and advertising you see.
Visit our Privacy Policy to learn more. By continuing to use the site, you agree to this use of cookies and data.
  • In Österreich
  • Länderverzeichnis
  • Für 7 Tage
  • Wassertemperatur
  • Satellitenkarten
  • Wetterkarte
  • News
  • Widgets
  • user-avatar
    Anmelden

    Stündliche Wetter Torrington

    Heute, 21 Juli, Sonntag

    Zeit Temperatur Niederschläge Wind Luftdruck Luftfeuchtigkeit
    00:00 +25°C° 0 mm 1 m/S 737 mmHg 92%
    01:00 +25°C° 0 mm 1 m/S 737 mmHg 95%
    02:00 +25°C° 0 mm 1 m/S 737 mmHg 95%
    03:00 +25°C° 0 mm 1 m/S 737 mmHg 95%
    04:00 +25°C° 0 mm 1 m/S 736 mmHg 95%
    05:00 +26°C° 0 mm 1 m/S 737 mmHg 93%
    06:00 +27°C° 0 mm 1 m/S 737 mmHg 91%
    07:00 +28°C° 0 mm 2 m/S 738 mmHg 89%
    08:00 +30°C° 0 mm 2 m/S 738 mmHg 77%
    09:00 +31°C° 0 mm 3 m/S 737 mmHg 65%
    10:00 +34°C° 0 mm 3 m/S 737 mmHg 53%
    11:00 +36°C° 0 mm 4 m/S 737 mmHg 47%
    12:00 +37°C° 0 mm 4 m/S 737 mmHg 42%
    13:00 +38°C° 0 mm 4 m/S 737 mmHg 36%
    14:00 +39°C° 0 mm 5 m/S 737 mmHg 38%
    15:00 +37°C° 0 mm 5 m/S 737 mmHg 39%
    16:00 +37°C° 0 mm 5 m/S 737 mmHg 40%
    17:00 +35°C° 0 mm 4 m/S 737 mmHg 51%
    18:00 +31°C° 0 mm 3 m/S 737 mmHg 62%
    19:00 +29°C° 0 mm 3 m/S 738 mmHg 72%
    20:00 +27°C° 0.2 mm 3 m/S 738 mmHg 73%
    21:00 +26°C° 0.2 mm 3 m/S 738 mmHg 75%
    22:00 +24°C° 0.2 mm 3 m/S 738 mmHg 76%
    23:00 +23°C° 0.1 mm 2 m/S 738 mmHg 72%

    Morgen, 22 Juli, Montag

    Zeit Temperatur Niederschläge Wind Luftdruck Luftfeuchtigkeit
    00:00 +21°C° 0.1 mm 2 m/S 739 mmHg 68%
    01:00 +20°C° 0.1 mm 2 m/S 739 mmHg 63%
    02:00 +20°C° 0 mm 2 m/S 739 mmHg 66%
    03:00 +19°C° 0 mm 2 m/S 739 mmHg 69%
    04:00 +20°C° 0 mm 1 m/S 738 mmHg 72%
    05:00 +21°C° 0 mm 1 m/S 739 mmHg 70%
    06:00 +23°C° 0 mm 1 m/S 739 mmHg 68%
    07:00 +24°C° 0 mm 1 m/S 740 mmHg 65%
    08:00 +27°C° 0 mm 1 m/S 740 mmHg 58%
    09:00 +29°C° 0 mm 1 m/S 740 mmHg 51%
    10:00 +30°C° 0 mm 0 m/S 740 mmHg 43%
    11:00 +32°C° 0 mm 1 m/S 739 mmHg 42%
    12:00 +32°C° 0 mm 2 m/S 739 mmHg 40%
    13:00 +34°C° 0 mm 2 m/S 739 mmHg 39%
    14:00 +31°C° 0.1 mm 2 m/S 738 mmHg 49%
    15:00 +28°C° 0.1 mm 2 m/S 738 mmHg 60%
    16:00 +26°C° 0.1 mm 2 m/S 737 mmHg 70%
    17:00 +25°C° 0.7 mm 3 m/S 737 mmHg 78%
    18:00 +22°C° 0.7 mm 3 m/S 737 mmHg 86%
    19:00 +20°C° 0.7 mm 3 m/S 737 mmHg 94%
    20:00 +19°C° 1 mm 3 m/S 737 mmHg 95%
    21:00 +19°C° 1 mm 3 m/S 737 mmHg 95%
    22:00 +18°C° 1 mm 2 m/S 737 mmHg 96%
    23:00 +18°C° 0.2 mm 2 m/S 737 mmHg 96%

    übermorgen, 23 Juli, Dienstag

    Zeit Temperatur Niederschläge Wind Luftdruck Luftfeuchtigkeit
    00:00 +18°C° 0.2 mm 2 m/S 737 mmHg 97%
    01:00 +19°C° 0.2 mm 1 m/S 737 mmHg 97%
    02:00 +19°C° 0.1 mm 1 m/S 737 mmHg 97%
    03:00 +19°C° 0.1 mm 1 m/S 737 mmHg 97%
    04:00 +19°C° 0.1 mm 1 m/S 737 mmHg 96%
    05:00 +19°C° 1.2 mm 1 m/S 737 mmHg 97%
    06:00 +19°C° 1.2 mm 1 m/S 738 mmHg 97%
    07:00 +19°C° 1.2 mm 1 m/S 738 mmHg 97%
    08:00 +19°C° 1.1 mm 1 m/S 738 mmHg 97%
    09:00 +19°C° 1.1 mm 1 m/S 738 mmHg 96%
    10:00 +19°C° 1.1 mm 2 m/S 738 mmHg 96%
    11:00 +20°C° 0.6 mm 2 m/S 738 mmHg 92%
    12:00 +22°C° 0.6 mm 1 m/S 738 mmHg 89%
    13:00 +23°C° 0.6 mm 1 m/S 738 mmHg 86%
    14:00 +23°C° 0.7 mm 1 m/S 738 mmHg 86%
    15:00 +23°C° 0.7 mm 1 m/S 738 mmHg 87%
    16:00 +23°C° 0.7 mm 1 m/S 738 mmHg 87%
    17:00 +22°C° 0.4 mm 1 m/S 738 mmHg 88%
    18:00 +21°C° 0.4 mm 1 m/S 739 mmHg 88%
    19:00 +18°C° 0.4 mm 0 m/S 739 mmHg 89%
    20:00 +20°C° 0 mm 1 m/S 739 mmHg 89%
    21:00 +19°C° 0 mm 1 m/S 740 mmHg 89%
    22:00 +18°C° 0 mm 1 m/S 740 mmHg 89%
    23:00 +18°C° 0 mm 1 m/S 740 mmHg 89%

    24 Juli, Mittwoch

    Zeit Temperatur Niederschläge Wind Luftdruck Luftfeuchtigkeit
    00:00 +16°C° 0 mm 1 m/S 740 mmHg 90%
    01:00 +15°C° 0 mm 1 m/S 740 mmHg 90%
    02:00 +15°C° 0 mm 1 m/S 740 mmHg 90%
    03:00 +15°C° 0 mm 2 m/S 740 mmHg 90%
    04:00 +14°C° 0 mm 2 m/S 741 mmHg 91%
    05:00 +15°C° 0 mm 2 m/S 741 mmHg 86%
    06:00 +17°C° 0 mm 2 m/S 742 mmHg 82%
    07:00 +18°C° 0 mm 2 m/S 742 mmHg 77%
    08:00 +20°C° 0 mm 2 m/S 742 mmHg 65%
    09:00 +23°C° 0 mm 2 m/S 743 mmHg 52%
    10:00 +25°C° 0 mm 2 m/S 743 mmHg 40%
    11:00 +26°C° 0 mm 3 m/S 743 mmHg 38%
    12:00 +27°C° 0 mm 3 m/S 743 mmHg 37%
    13:00 +27°C° 0 mm 3 m/S 742 mmHg 35%
    14:00 +27°C° 0 mm 3 m/S 742 mmHg 36%
    15:00 +27°C° 0 mm 3 m/S 742 mmHg 36%
    16:00 +27°C° 0 mm 3 m/S 742 mmHg 37%
    17:00 +25°C° 0 mm 2 m/S 742 mmHg 46%
    18:00 +23°C° 0 mm 2 m/S 743 mmHg 55%
    19:00 +21°C° 0 mm 1 m/S 743 mmHg 64%
    20:00 +20°C° 0 mm 1 m/S 743 mmHg 64%
    21:00 +20°C° 0 mm 1 m/S 743 mmHg 64%
    22:00 +19°C° 0 mm 1 m/S 744 mmHg 64%
    23:00 +18°C° 0 mm 1 m/S 744 mmHg 67%

    25 Juli, Donnerstag

    Zeit Temperatur Niederschläge Wind Luftdruck Luftfeuchtigkeit
    00:00 +18°C° 0 mm 1 m/S 744 mmHg 70%
    01:00 +16°C° 0 mm 1 m/S 744 mmHg 74%
    02:00 +16°C° 0 mm 1 m/S 744 mmHg 75%
    03:00 +15°C° 0 mm 1 m/S 744 mmHg 76%
    04:00 +15°C° 0 mm 1 m/S 744 mmHg 78%
    05:00 +18°C° 0 mm 1 m/S 745 mmHg 73%
    06:00 +19°C° 0 mm 1 m/S 745 mmHg 69%
    07:00 +21°C° 0 mm 1 m/S 746 mmHg 64%
    08:00 +23°C° 0 mm 1 m/S 746 mmHg 56%
    09:00 +25°C° 0 mm 1 m/S 746 mmHg 48%
    10:00 +27°C° 0 mm 2 m/S 746 mmHg 40%
    11:00 +28°C° 0 mm 1 m/S 746 mmHg 39%
    12:00 +29°C° 0 mm 1 m/S 746 mmHg 37%
    13:00 +30°C° 0 mm 1 m/S 746 mmHg 36%
    14:00 +30°C° 0 mm 1 m/S 746 mmHg 37%
    15:00 +29°C° 0 mm 2 m/S 746 mmHg 38%
    16:00 +29°C° 0 mm 2 m/S 745 mmHg 40%
    17:00 +27°C° 0 mm 1 m/S 746 mmHg 49%
    18:00 +25°C° 0 mm 1 m/S 746 mmHg 59%
    19:00 +23°C° 0 mm 1 m/S 746 mmHg 68%
    20:00 +22°C° 0 mm 1 m/S 746 mmHg 69%
    21:00 +21°C° 0 mm 1 m/S 746 mmHg 69%
    22:00 +18°C° 0 mm 0 m/S 747 mmHg 70%
    23:00 +17°C° 0 mm 0 m/S 747 mmHg 70%

    26 Juli, Freitag

    Zeit Temperatur Niederschläge Wind Luftdruck Luftfeuchtigkeit
    00:00 +17°C° 0 mm 0 m/S 747 mmHg 71%
    01:00 +17°C° 0 mm 0 m/S 747 mmHg 72%
    02:00 +16°C° 0 mm 0 m/S 747 mmHg 73%
    03:00 +16°C° 0 mm 0 m/S 747 mmHg 73%
    04:00 +16°C° 0 mm 0 m/S 747 mmHg 74%
    05:00 +18°C° 0 mm 0 m/S 747 mmHg 71%
    06:00 +20°C° 0 mm 0 m/S 748 mmHg 69%
    07:00 +21°C° 0 mm 0 m/S 748 mmHg 66%
    08:00 +24°C° 0 mm 0 m/S 748 mmHg 60%
    09:00 +26°C° 0 mm 0 m/S 748 mmHg 53%
    10:00 +29°C° 0 mm 0 m/S 749 mmHg 46%
    11:00 +31°C° 0 mm 1 m/S 748 mmHg 43%
    12:00 +32°C° 0 mm 1 m/S 748 mmHg 40%
    13:00 +32°C° 0 mm 2 m/S 748 mmHg 37%
    14:00 +32°C° 0 mm 2 m/S 748 mmHg 38%
    15:00 +32°C° 0 mm 2 m/S 748 mmHg 39%
    16:00 +31°C° 0 mm 2 m/S 748 mmHg 40%
    17:00 +29°C° 0 mm 2 m/S 748 mmHg 50%
    18:00 +26°C° 0 mm 1 m/S 748 mmHg 61%
    19:00 +24°C° 0 mm 1 m/S 747 mmHg 71%
    20:00 +23°C° 0 mm 1 m/S 748 mmHg 73%
    21:00 +22°C° 0 mm 1 m/S 748 mmHg 74%
    22:00 +21°C° 0 mm 1 m/S 748 mmHg 75%
    23:00 +21°C° 0 mm 1 m/S 748 mmHg 77%
    Mehr zeigen